| time (UTC) | temp C | wind direction | speed KPH | gust KPH | rain 1hr cm | rain 24hr cm | rain mn cm | humidity % | barometer mb |
| 20260507015738 | 12 | 345 | 9.7 | 16.1 | 0.00 | 0.00 | 0.00 | 88 | 1022.1 |
| 20260507015237 | 12 | 12 | 9.7 | 16.1 | 0.00 | 0.00 | 0.00 | 88 | 1022.3 |
| 20260507014238 | 12 | 310 | 12.9 | 14.5 | 0.00 | 0.00 | 0.00 | 88 | 1022.3 |
| 20260507013737 | 12 | 311 | 9.7 | 11.3 | 0.00 | 0.00 | 0.00 | 89 | 1022.3 |
| 20260507013238 | 12 | 44 | 3.2 | 16.1 | 0.00 | 0.00 | 0.00 | 89 | 1022.3 |
| 20260507012738 | 12 | 310 | 0.0 | 16.1 | 0.00 | 0.00 | 0.00 | 89 | 1022.2 |
| 20260507012208 | 12 | 10 | 3.2 | 14.5 | 0.00 | 0.00 | 0.00 | 89 | 1022.3 |
| 20260507011707 | 12 | 297 | 9.7 | 11.3 | 0.00 | 0.00 | 0.00 | 89 | 1022.3 |
| 20260507011239 | 12 | 316 | 9.7 | 11.3 | 0.00 | 0.00 | 0.00 | 90 | 1022.3 |
| 20260507010737 | 12 | 322 | 0.0 | 11.3 | 0.00 | 0.00 | 0.00 | 90 | 1022.4 |
| 20260507010237 | 12 | 9 | 8.0 | 11.3 | 0.00 | 0.00 | 0.00 | 90 | 1022.4 |
| 20260507005737 | 12 | 327 | 0.0 | 4.8 | 0.00 | 0.00 | 0.00 | 90 | 1022.3 |
| 20260507005237 | 12 | 295 | 0.0 | 4.8 | 0.00 | 0.00 | 0.00 | 91 | 1022.4 |
| 20260507004737 | 12 | 262 | 0.0 | 4.8 | 0.00 | 0.00 | 0.00 | 91 | 1022.3 |
| 20260507003236 | 12 | 15 | 8.0 | 11.3 | 0.00 | 0.00 | 0.00 | 92 | 1022.4 |
| 20260507002737 | 12 | 153 | 4.8 | 4.8 | 0.00 | 0.00 | 0.00 | 93 | 1022.4 |
| 20260507002236 | 12 | 116 | 0.0 | 4.8 | 0.00 | 0.00 | 0.00 | 93 | 1022.4 |
| 20260507001206 | 12 | 207 | 0.0 | 11.3 | 0.00 | 0.00 | 0.00 | 93 | 1022.4 |
| 20260507000736 | 12 | 198 | 8.0 | 11.3 | 0.00 | 0.00 | 0.00 | 92 | 1022.4 |
| 20260507000236 | 12 | 243 | 0.0 | 11.3 | 0.00 | 0.00 | 0.00 | 92 | 1022.4 |
| 20260506235736 | 12 | 154 | 4.8 | 11.3 | 0.00 | 0.00 | 0.00 | 92 | 1022.5 |
| 20260506235235 | 12 | 293 | 4.8 | 11.3 | 0.00 | 0.00 | 0.00 | 91 | 1022.4 |
| 20260506234735 | 12 | 354 | 0.0 | 3.2 | 0.00 | 0.00 | 0.00 | 91 | 1022.5 |
| 20260506234236 | 12 | 234 | 0.0 | 11.3 | 0.00 | 0.00 | 0.00 | 91 | 1022.5 |
| 20260506233706 | 12 | 165 | 0.0 | 11.3 | 0.00 | 0.00 | 0.00 | 90 | 1022.5 |
| 20260506233236 | 12 | 23 | 3.2 | 4.8 | 0.00 | 0.00 | 0.00 | 90 | 1022.7 |
| 20260506232735 | 12 | 339 | 0.0 | 11.3 | 0.00 | 0.00 | 0.00 | 89 | 1022.6 |
| 20260506232235 | 12 | 294 | 4.8 | 11.3 | 0.00 | 0.00 | 0.00 | 88 | 1022.7 |
| 20260506231705 | 12 | 21 | 8.0 | 14.5 | 0.00 | 0.00 | 0.00 | 88 | 1022.6 |
| 20260506230735 | 12 | 282 | 9.7 | 11.3 | 0.00 | 0.00 | 0.00 | 87 | 1022.7 |
| 20260506230235 | 13 | 22 | 3.2 | 3.2 | 0.00 | 0.00 | 0.00 | 88 | 1022.7 |
| 20260506225705 | 12 | 34 | 0.0 | 11.3 | 0.00 | 0.00 | 0.00 | 88 | 1022.7 |
| 20260506225235 | 12 | 250 | 4.8 | 11.3 | 0.00 | 0.00 | 0.00 | 87 | 1022.7 |
| 20260506224735 | 12 | 306 | 3.2 | 4.8 | 0.00 | 0.00 | 0.00 | 87 | 1022.8 |
| 20260506224234 | 13 | 252 | 0.0 | 3.2 | 0.00 | 0.00 | 0.00 | 87 | 1022.7 |
| 20260506223735 | 13 | 293 | 0.0 | 8.0 | 0.00 | 0.00 | 0.00 | 88 | 1022.9 |
| 20260506223234 | 12 | 348 | 0.0 | 8.0 | 0.00 | 0.00 | 0.00 | 88 | 1022.9 |
| 20260506222734 | 13 | 339 | 8.0 | 14.5 | 0.00 | 0.00 | 0.00 | 88 | 1022.7 |
| 20260506221234 | 13 | 300 | 0.0 | 16.1 | 0.00 | 0.00 | 0.00 | 86 | 1022.7 |
| 20260506220734 | 13 | 252 | 8.0 | 16.1 | 0.00 | 0.00 | 0.00 | 86 | 1022.7 |
| 20260506220234 | 13 | 287 | 3.2 | 11.3 | 0.00 | 0.00 | 0.00 | 86 | 1022.7 |
| 20260506215734 | 13 | 255 | 3.2 | 11.3 | 0.00 | 0.00 | 0.00 | 88 | 1022.7 |
| 20260506214734 | 12 | 308 | 4.8 | 16.1 | 0.00 | 0.00 | 0.00 | 87 | 1022.6 |
| 20260506213734 | 12 | 238 | 3.2 | 11.3 | 0.00 | 0.00 | 0.00 | 88 | 1022.6 |
| 20260506213233 | 12 | 349 | 4.8 | 11.3 | 0.00 | 0.00 | 0.00 | 89 | 1022.8 |
| 20260506212733 | 12 | 35 | 3.2 | 8.0 | 0.00 | 0.00 | 0.00 | 90 | 1022.6 |
| 20260506212233 | 12 | 321 | 4.8 | 8.0 | 0.00 | 0.00 | 0.00 | 89 | 1022.6 |
| 20260506211735 | 12 | 267 | 0.0 | 8.0 | 0.00 | 0.00 | 0.00 | 91 | 1022.6 |
| 20260506211233 | 12 | 302 | 0.0 | 8.0 | 0.00 | 0.00 | 0.00 | 90 | 1022.6 |
| 20260506210733 | 12 | 303 | 3.2 | 8.0 | 0.00 | 0.00 | 0.00 | 90 | 1022.6 |
| 20260506210233 | 12 | 200 | 3.2 | 3.2 | 0.00 | 0.00 | 0.00 | 91 | 1022.5 |
| 20260506205733 | 12 | 7 | 3.2 | 11.3 | 0.00 | 0.00 | 0.00 | 90 | 1022.4 |
| 20260506205233 | 12 | 34 | 3.2 | 11.3 | 0.00 | 0.00 | 0.00 | 89 | 1022.4 |
| 20260506204733 | 12 | 16 | 0.0 | 3.2 | 0.00 | 0.00 | 0.00 | 89 | 1022.5 |
| 20260506204233 | 12 | 31 | 0.0 | 14.5 | 0.00 | 0.00 | 0.00 | 89 | 1022.4 |
| 20260506203733 | 12 | 281 | 0.0 | 14.5 | 0.00 | 0.00 | 0.00 | 88 | 1022.5 |
| 20260506202733 | 12 | 126 | 0.0 | 8.0 | 0.00 | 0.00 | 0.00 | 88 | 1022.4 |
| 20260506202233 | 12 | 300 | 4.8 | 16.1 | 0.00 | 0.00 | 0.00 | 89 | 1022.4 |
| 20260506201732 | 12 | 314 | 8.0 | 16.1 | 0.00 | 0.00 | 0.00 | 87 | 1022.4 |
| 20260506201232 | 12 | 292 | 3.2 | 22.5 | 0.00 | 0.00 | 0.00 | 87 | 1022.4 |
| 20260506200732 | 12 | 237 | 0.0 | 22.5 | 0.00 | 0.00 | 0.00 | 87 | 1022.4 |
| 20260506195732 | 12 | 308 | 0.0 | 8.0 | 0.00 | 0.00 | 0.00 | 87 | 1022.5 |
| 20260506195232 | 12 | 301 | 3.2 | 8.0 | 0.00 | 0.00 | 0.00 | 86 | 1022.4 |
| 20260506194232 | 12 | 228 | 0.0 | 14.5 | 0.00 | 0.00 | 0.00 | 87 | 1022.3 |
| 20260506193731 | 12 | 282 | 3.2 | 14.5 | 0.00 | 0.00 | 0.00 | 86 | 1022.3 |
| 20260506192232 | 12 | 219 | 3.2 | 16.1 | 0.00 | 0.00 | 0.00 | 85 | 1022.1 |
| 20260506191731 | 12 | 226 | 4.8 | 8.0 | 0.00 | 0.00 | 0.00 | 87 | 1022.1 |
| 20260506191231 | 12 | 179 | 0.0 | 8.0 | 0.00 | 0.00 | 0.00 | 87 | 1021.9 |
| 20260506190731 | 12 | 269 | 0.0 | 8.0 | 0.00 | 0.00 | 0.00 | 87 | 1021.9 |
| 20260506190231 | 12 | 293 | 0.0 | 3.2 | 0.00 | 0.00 | 0.00 | 88 | 1021.7 |
| 20260506185731 | 12 | 314 | 0.0 | 3.2 | 0.00 | 0.00 | 0.00 | 88 | 1021.7 |
| 20260506185231 | 12 | 216 | 3.2 | 4.8 | 0.00 | 0.00 | 0.00 | 88 | 1021.7 |
| 20260506184730 | 12 | 301 | 4.8 | 4.8 | 0.00 | 0.00 | 0.00 | 88 | 1021.8 |
| 20260506184230 | 12 | 318 | 4.8 | 8.0 | 0.00 | 0.00 | 0.00 | 87 | 1022.1 |
| 20260506183731 | 12 | 297 | 0.0 | 8.0 | 0.00 | 0.00 | 0.00 | 87 | 1021.9 |
| 20260506183230 | 12 | 26 | 0.0 | 3.2 | 0.00 | 0.00 | 0.00 | 87 | 1022.0 |
| 20260506182730 | 12 | 118 | 0.0 | 14.5 | 0.00 | 0.00 | 0.00 | 86 | 1021.9 |
| 20260506182230 | 12 | 276 | 8.0 | 14.5 | 0.00 | 0.00 | 0.00 | 85 | 1021.9 |
| 20260506181730 | 12 | 257 | 0.0 | 3.2 | 0.00 | 0.00 | 0.00 | 85 | 1021.9 |
| 20260506181230 | 12 | 274 | 0.0 | 3.2 | 0.00 | 0.00 | 0.00 | 86 | 1021.9 |
| 20260506180230 | 12 | 265 | 0.0 | 4.8 | 0.00 | 0.00 | 0.00 | 85 | 1021.9 |
| 20260506175730 | 12 | 283 | 0.0 | 8.0 | 0.00 | 0.00 | 0.00 | 85 | 1021.8 |
| 20260506175229 | 12 | 295 | 3.2 | 8.0 | 0.00 | 0.00 | 0.00 | 86 | 1021.7 |
| 20260506174730 | 12 | 244 | 0.0 | 4.8 | 0.00 | 0.00 | 0.00 | 86 | 1021.8 |
| 20260506174230 | 12 | 295 | 3.2 | 4.8 | 0.00 | 0.00 | 0.00 | 86 | 1021.7 |
| 20260506173729 | 12 | 237 | 0.0 | 3.2 | 0.00 | 0.00 | 0.00 | 86 | 1021.8 |
| 20260506173230 | 12 | 221 | 0.0 | 8.0 | 0.00 | 0.00 | 0.00 | 87 | 1021.7 |
| 20260506172729 | 12 | 307 | 0.0 | 8.0 | 0.00 | 0.00 | 0.00 | 86 | 1021.6 |
| 20260506172229 | 12 | 139 | 0.0 | 3.2 | 0.00 | 0.00 | 0.00 | 86 | 1021.5 |
| 20260506171729 | 12 | 238 | 0.0 | 3.2 | 0.00 | 0.00 | 0.00 | 86 | 1021.3 |
| 20260506170729 | 12 | 239 | 0.0 | 8.0 | 0.00 | 0.00 | 0.00 | 86 | 1021.2 |
| 20260506165729 | 12 | 338 | 0.0 | 4.8 | 0.00 | 0.00 | 0.00 | 86 | 1021.2 |
| 20260506165229 | 12 | 15 | 3.2 | 4.8 | 0.00 | 0.00 | 0.00 | 86 | 1021.2 |
| 20260506164729 | 12 | 243 | 0.0 | 4.8 | 0.00 | 0.00 | 0.00 | 86 | 1021.2 |
| 20260506164229 | 12 | 170 | 0.0 | 3.2 | 0.00 | 0.00 | 0.00 | 86 | 1021.1 |
| 20260506163729 | 12 | 246 | 0.0 | 4.8 | 0.00 | 0.00 | 0.00 | 86 | 1021.2 |
| 20260506163228 | 12 | 216 | 0.0 | 4.8 | 0.00 | 0.00 | 0.00 | 86 | 1021.2 |
| 20260506162228 | 12 | 248 | 0.0 | 0.0 | 0.00 | 0.00 | 0.00 | 86 | 1021.0 |
| 20260506161227 | 12 | 283 | 0.0 | 8.0 | 0.00 | 0.00 | 0.00 | 86 | 1021.0 |
| 20260506160728 | 12 | 264 | 0.0 | 8.0 | 0.00 | 0.00 | 0.00 | 85 | 1021.0 |
| 20260506160228 | 12 | 216 | 4.8 | 4.8 | 0.00 | 0.00 | 0.00 | 85 | 1021.0 |
| 20260506155728 | 12 | 288 | 0.0 | 4.8 | 0.00 | 0.00 | 0.00 | 85 | 1021.0 |
| 20260506155228 | 12 | 335 | 3.2 | 4.8 | 0.00 | 0.00 | 0.00 | 85 | 1021.0 |
| 20260506154728 | 12 | 204 | 0.0 | 3.2 | 0.00 | 0.00 | 0.00 | 86 | 1020.9 |
| 20260506154227 | 12 | 286 | 0.0 | 8.0 | 0.00 | 0.00 | 0.00 | 86 | 1020.9 |
| 20260506153727 | 12 | 237 | 3.2 | 8.0 | 0.00 | 0.00 | 0.00 | 86 | 1020.9 |
| 20260506153227 | 12 | 304 | 3.2 | 8.0 | 0.00 | 0.00 | 0.00 | 86 | 1020.8 |
| 20260506152727 | 12 | 245 | 0.0 | 4.8 | 0.00 | 0.00 | 0.00 | 86 | 1020.7 |
| 20260506152227 | 12 | 220 | 0.0 | 4.8 | 0.00 | 0.00 | 0.00 | 86 | 1020.4 |
| 20260506151227 | 12 | 293 | 0.0 | 4.8 | 0.00 | 0.00 | 0.00 | 86 | 1020.3 |
| 20260506150727 | 12 | 347 | 3.2 | 8.0 | 0.00 | 0.00 | 0.00 | 86 | 1020.3 |
| 20260506150227 | 12 | 237 | 0.0 | 8.0 | 0.00 | 0.00 | 0.00 | 86 | 1020.4 |
| 20260506145227 | 11 | 113 | 0.0 | 3.2 | 0.00 | 0.00 | 0.00 | 86 | 1020.2 |
| 20260506144726 | 11 | 120 | 0.0 | 3.2 | 0.00 | 0.00 | 0.00 | 86 | 1020.3 |
| 20260506144227 | 11 | 115 | 0.0 | 3.2 | 0.00 | 0.00 | 0.00 | 86 | 1020.4 |
| 20260506143226 | 11 | 223 | 0.0 | 3.2 | 0.00 | 0.00 | 0.00 | 87 | 1020.6 |
| 20260506142726 | 11 | 260 | 3.2 | 3.2 | 0.00 | 0.00 | 0.00 | 87 | 1020.5 |
| 20260506141726 | 11 | 305 | 0.0 | 0.0 | 0.00 | 0.00 | 0.00 | 88 | 1020.4 |
| 20260506141226 | 11 | 304 | 0.0 | 3.2 | 0.00 | 0.00 | 0.00 | 88 | 1020.4 |
| 20260506140726 | 11 | 233 | 3.2 | 3.2 | 0.00 | 0.00 | 0.00 | 88 | 1020.2 |
| 20260506140225 | 11 | 136 | 0.0 | 3.2 | 0.00 | 0.00 | 0.00 | 88 | 1019.9 |
| 20260506135725 | 11 | 146 | 0.0 | 4.8 | 0.00 | 0.00 | 0.00 | 88 | 1019.7 |
| 20260506135226 | 11 | 103 | 4.8 | 4.8 | 0.00 | 0.00 | 0.00 | 88 | 1019.8 |
| 20260506134725 | 11 | 132 | 3.2 | 3.2 | 0.00 | 0.00 | 0.00 | 89 | 1019.8 |
| 20260506134225 | 11 | 248 | 0.0 | 4.8 | 0.00 | 0.00 | 0.00 | 89 | 1020.0 |
| 20260506133726 | 11 | 136 | 3.2 | 4.8 | 0.00 | 0.00 | 0.00 | 89 | 1019.6 |
| 20260506133225 | 11 | 161 | 0.0 | 4.8 | 0.00 | 0.00 | 0.00 | 89 | 1019.7 |
| 20260506132725 | 11 | 134 | 3.2 | 4.8 | 0.00 | 0.00 | 0.00 | 89 | 1019.6 |
| 20260506132225 | 11 | 256 | 0.0 | 0.0 | 0.00 | 0.00 | 0.00 | 89 | 1020.0 |
| 20260506131725 | 11 | 256 | 0.0 | 0.0 | 0.00 | 0.00 | 0.00 | 89 | 1020.0 |
| 20260506131225 | 11 | 120 | 0.0 | 0.0 | 0.00 | 0.00 | 0.00 | 89 | 1020.0 |
| 20260506130725 | 11 | 120 | 0.0 | 3.2 | 0.00 | 0.00 | 0.00 | 89 | 1019.9 |
| 20260506130224 | 11 | 120 | 0.0 | 3.2 | 0.00 | 0.00 | 0.00 | 89 | 1020.0 |
| 20260506125724 | 11 | 121 | 0.0 | 3.2 | 0.00 | 0.00 | 0.00 | 89 | 1019.7 |
| 20260506124725 | 11 | 229 | 0.0 | 0.0 | 0.00 | 0.00 | 0.00 | 89 | 1019.9 |
| 20260506124224 | 11 | 229 | 0.0 | 0.0 | 0.00 | 0.00 | 0.00 | 89 | 1019.9 |
| 20260506123724 | 11 | 229 | 0.0 | 0.0 | 0.00 | 0.00 | 0.00 | 89 | 1019.9 |
| 20260506122724 | 11 | 146 | 0.0 | 0.0 | 0.00 | 0.00 | 0.00 | 89 | 1020.0 |
| 20260506122224 | 11 | 146 | 0.0 | 0.0 | 0.00 | 0.00 | 0.00 | 89 | 1019.7 |
| 20260506121723 | 11 | 129 | 0.0 | 3.2 | 0.00 | 0.00 | 0.00 | 89 | 1019.5 |
| 20260506120725 | 11 | 229 | 0.0 | 0.0 | 0.00 | 0.00 | 0.00 | 89 | 1019.7 |
| 20260506120223 | 11 | 230 | 0.0 | 0.0 | 0.00 | 0.00 | 0.00 | 89 | 1019.7 |
| 20260506115723 | 11 | 230 | 0.0 | 3.2 | 0.00 | 0.00 | 0.00 | 89 | 1019.7 |
| 20260506115223 | 11 | 258 | 3.2 | 3.2 | 0.00 | 0.00 | 0.00 | 88 | 1019.8 |
| 20260506114723 | 11 | 247 | 0.0 | 0.0 | 0.00 | 0.00 | 0.00 | 88 | 1019.8 |
| 20260506114223 | 11 | 170 | 0.0 | 0.0 | 0.00 | 0.00 | 0.00 | 88 | 1019.8 |
| 20260506113723 | 11 | 168 | 0.0 | 0.0 | 0.00 | 0.00 | 0.00 | 88 | 1019.6 |
| 20260506113223 | 11 | 263 | 0.0 | 0.0 | 0.00 | 0.00 | 0.00 | 88 | 1019.7 |
| 20260506112723 | 11 | 262 | 0.0 | 3.2 | 0.00 | 0.00 | 0.00 | 88 | 1019.7 |
| 20260506112223 | 11 | 336 | 0.0 | 3.2 | 0.00 | 0.00 | 0.00 | 88 | 1019.7 |
| 20260506111722 | 11 | 268 | 0.0 | 8.0 | 0.00 | 0.00 | 0.00 | 88 | 1019.5 |
| 20260506111223 | 11 | 48 | 3.2 | 8.0 | 0.00 | 0.00 | 0.00 | 88 | 1019.5 |
| 20260506110722 | 11 | 328 | 4.8 | 8.0 | 0.00 | 0.00 | 0.00 | 88 | 1019.6 |
| 20260506110222 | 11 | 354 | 0.0 | 8.0 | 0.00 | 0.00 | 0.00 | 89 | 1019.4 |
| 20260506105723 | 11 | 20 | 4.8 | 8.0 | 0.00 | 0.00 | 0.00 | 89 | 1019.3 |
| 20260506104722 | 11 | 247 | 0.0 | 0.0 | 0.00 | 0.00 | 0.00 | 89 | 1019.2 |
| 20260506104223 | 11 | 207 | 0.0 | 3.2 | 0.00 | 0.00 | 0.00 | 88 | 1019.2 |
| 20260506103722 | 11 | 252 | 0.0 | 3.2 | 0.00 | 0.00 | 0.00 | 88 | 1019.1 |
| 20260506103222 | 11 | 258 | 0.0 | 0.0 | 0.00 | 0.00 | 0.00 | 88 | 1019.1 |
| 20260506102723 | 11 | 258 | 0.0 | 0.0 | 0.00 | 0.00 | 0.00 | 88 | 1019.1 |
| 20260506102222 | 11 | 11 | 0.0 | 0.0 | 0.00 | 0.00 | 0.00 | 88 | 1019.0 |
| 20260506100723 | 11 | 11 | 0.0 | 3.2 | 0.00 | 0.00 | 0.00 | 88 | 1019.0 |
| 20260506095722 | 11 | 15 | 4.8 | 4.8 | 0.00 | 0.00 | 0.00 | 88 | 1019.1 |
| 20260506095221 | 11 | 293 | 0.0 | 4.8 | 0.00 | 0.00 | 0.00 | 88 | 1019.1 |
| 20260506094721 | 11 | 292 | 4.8 | 4.8 | 0.00 | 0.00 | 0.00 | 88 | 1019.0 |
| 20260506094221 | 11 | 41 | 0.0 | 3.2 | 0.00 | 0.00 | 0.00 | 88 | 1019.0 |
| 20260506093721 | 11 | 41 | 0.0 | 3.2 | 0.00 | 0.00 | 0.00 | 88 | 1019.0 |
| 20260506092720 | 11 | 320 | 0.0 | 0.0 | 0.00 | 0.00 | 0.00 | 88 | 1018.9 |
| 20260506092221 | 11 | 320 | 0.0 | 3.2 | 0.00 | 0.00 | 0.00 | 88 | 1018.9 |
| 20260506091721 | 11 | 320 | 0.0 | 3.2 | 0.00 | 0.00 | 0.00 | 88 | 1018.8 |
| 20260506091220 | 11 | 229 | 0.0 | 0.0 | 0.00 | 0.00 | 0.00 | 88 | 1018.8 |
| 20260506090720 | 11 | 229 | 0.0 | 0.0 | 0.00 | 0.00 | 0.00 | 88 | 1018.8 |
| 20260506090220 | 11 | 229 | 0.0 | 0.0 | 0.00 | 0.00 | 0.00 | 88 | 1018.8 |
| 20260506085720 | 11 | 230 | 0.0 | 3.2 | 0.00 | 0.00 | 0.00 | 88 | 1018.7 |
| 20260506085220 | 11 | 216 | 0.0 | 4.8 | 0.00 | 0.00 | 0.00 | 88 | 1018.7 |
| 20260506084220 | 11 | 271 | 0.0 | 11.3 | 0.00 | 0.00 | 0.00 | 88 | 1018.7 |
| 20260506083720 | 11 | 224 | 0.0 | 11.3 | 0.00 | 0.00 | 0.00 | 88 | 1018.6 |
| 20260506083220 | 11 | 289 | 3.2 | 3.2 | 0.00 | 0.00 | 0.00 | 88 | 1018.7 |
| 20260506082719 | 12 | 343 | 0.0 | 0.0 | 0.00 | 0.00 | 0.00 | 88 | 1018.7 |
| 20260506082220 | 12 | 344 | 0.0 | 4.8 | 0.00 | 0.00 | 0.00 | 88 | 1018.6 |
| 20260506081720 | 11 | 297 | 0.0 | 4.8 | 0.00 | 0.00 | 0.00 | 88 | 1018.6 |
| 20260506081220 | 12 | 297 | 0.0 | 0.0 | 0.00 | 0.00 | 0.00 | 87 | 1018.6 |
| 20260506080719 | 12 | 259 | 0.0 | 3.2 | 0.00 | 0.00 | 0.00 | 88 | 1018.5 |
| 20260506073219 | 12 | 249 | 0.0 | 8.0 | 0.00 | 0.00 | 0.00 | 87 | 1018.2 |
| 20260506072718 | 12 | 203 | 3.2 | 8.0 | 0.00 | 0.00 | 0.00 | 87 | 1018.1 |
| 20260506072219 | 12 | 122 | 0.0 | 3.2 | 0.00 | 0.00 | 0.00 | 87 | 1018.0 |
| 20260506071719 | 12 | 122 | 0.0 | 3.2 | 0.00 | 0.00 | 0.00 | 87 | 1017.9 |
| 20260506071218 | 12 | 296 | 0.0 | 3.2 | 0.00 | 0.00 | 0.00 | 87 | 1018.0 |
| 20260506070218 | 12 | 253 | 0.0 | 3.2 | 0.00 | 0.00 | 0.00 | 87 | 1017.9 |
| 20260506062218 | 12 | 272 | 0.0 | 0.0 | 0.00 | 0.00 | 0.00 | 87 | 1017.8 |
| 20260506061717 | 12 | 311 | 0.0 | 3.2 | 0.00 | 0.00 | 0.00 | 87 | 1017.8 |
| 20260506061217 | 12 | 342 | 0.0 | 3.2 | 0.00 | 0.00 | 0.00 | 87 | 1017.6 |
| 20260506060717 | 12 | 273 | 0.0 | 3.2 | 0.00 | 0.00 | 0.00 | 87 | 1017.7 |
| 20260506060217 | 12 | 219 | 0.0 | 0.0 | 0.00 | 0.00 | 0.00 | 87 | 1017.7 |
| 20260506051217 | 12 | 164 | 0.0 | 3.2 | 0.00 | 0.00 | 0.00 | 88 | 1017.6 |
| 20260506044716 | 12 | 21 | 0.0 | 4.8 | 0.00 | 0.00 | 0.00 | 88 | 1017.5 |
| 20260506044216 | 12 | 21 | 0.0 | 4.8 | 0.00 | 0.00 | 0.00 | 88 | 1017.5 |
| 20260506043716 | 12 | 124 | 0.0 | 0.0 | 0.00 | 0.00 | 0.00 | 88 | 1017.6 |
| 20260506043216 | 12 | 359 | 0.0 | 4.8 | 0.00 | 0.00 | 0.00 | 88 | 1017.5 |
| 20260506042215 | 12 | 332 | 0.0 | 3.2 | 0.00 | 0.00 | 0.00 | 88 | 1017.3 |
| 20260506041716 | 12 | 228 | 0.0 | 3.2 | 0.00 | 0.00 | 0.00 | 88 | 1017.3 |
| 20260506041215 | 12 | 350 | 0.0 | 3.2 | 0.00 | 0.00 | 0.00 | 88 | 1017.4 |
| 20260506040716 | 12 | 351 | 3.2 | 4.8 | 0.00 | 0.00 | 0.00 | 88 | 1017.3 |
| 20260506035215 | 12 | 271 | 0.0 | 4.8 | 0.00 | 0.00 | 0.00 | 89 | 1017.1 |
| 20260506034715 | 12 | 56 | 3.2 | 4.8 | 0.00 | 0.00 | 0.00 | 89 | 1017.1 |
| 20260506034215 | 12 | 279 | 0.0 | 4.8 | 0.00 | 0.00 | 0.00 | 89 | 1017.1 |
| 20260506033715 | 12 | 318 | 0.0 | 4.8 | 0.00 | 0.00 | 0.00 | 89 | 1017.0 |
| 20260506033215 | 12 | 51 | 3.2 | 4.8 | 0.00 | 0.00 | 0.00 | 89 | 1017.0 |
| 20260506032715 | 12 | 8 | 3.2 | 3.2 | 0.00 | 0.00 | 0.00 | 88 | 1016.9 |
| 20260506032215 | 12 | 6 | 0.0 | 8.0 | 0.00 | 0.00 | 0.00 | 89 | 1016.8 |
| 20260506031714 | 12 | 282 | 3.2 | 8.0 | 0.00 | 0.00 | 0.00 | 88 | 1016.8 |
| 20260506031214 | 12 | 321 | 4.8 | 8.0 | 0.00 | 0.00 | 0.00 | 88 | 1016.8 |
| 20260506030715 | 12 | 336 | 0.0 | 0.0 | 0.00 | 0.00 | 0.00 | 88 | 1016.6 |
| 20260506030214 | 12 | 337 | 0.0 | 3.2 | 0.00 | 0.00 | 0.00 | 88 | 1016.6 |
| 20260506025714 | 12 | 326 | 0.0 | 3.2 | 0.00 | 0.00 | 0.00 | 89 | 1016.6 |
| 20260506025214 | 12 | 15 | 0.0 | 4.8 | 0.00 | 0.00 | 0.00 | 88 | 1016.6 |
| 20260506024715 | 13 | 305 | 0.0 | 4.8 | 0.00 | 0.00 | 0.00 | 88 | 1016.5 |
| 20260506024215 | 13 | 13 | 0.0 | 4.8 | 0.00 | 0.00 | 0.00 | 88 | 1016.6 |
| 20260506023214 | 13 | 287 | 3.2 | 8.0 | 0.00 | 0.00 | 0.00 | 88 | 1016.5 |
| 20260506022714 | 13 | 328 | 4.8 | 8.0 | 0.00 | 0.00 | 0.00 | 88 | 1016.5 |
| 20260506022214 | 13 | 297 | 3.2 | 8.0 | 0.00 | 0.00 | 0.00 | 88 | 1016.3 |
| 20260506021214 | 13 | 304 | 3.2 | 11.3 | 0.00 | 0.00 | 0.00 | 88 | 1016.4 |
| 20260506020713 | 13 | 297 | 4.8 | 11.3 | 0.00 | 0.00 | 0.00 | 87 | 1016.5 |
| 20260506020214 | 13 | 288 | 3.2 | 11.3 | 0.00 | 0.00 | 0.00 | 87 | 1016.5 |